Change the Weather History Date:

Saturday, March 23, 2013

  Actual Average (KCXO) Record (KCXO)
Temperature  
Mean Temperature 60 °F -  
Max Temperature 68 °F 70 °F 84 °F (2011)
Min Temperature 55 °F 49 °F 37 °F (2002)
Degree Days  
Heating Degree Days 4    
Growing Degree Days 10 (Base 50)    
Moisture  
Dew Point 54 °F    
Average Humidity 83    
Maximum Humidity 88    
Minimum Humidity 75    
Precipitation  
Precipitation 0.00 in - - ()
Sea Level Pressure  
Sea Level Pressure 29.70 in    
Wind  
Wind Speed 4 mph (NNW)    
Max Wind Speed 7 mph    
Max Gust Speed -    
Visibility 6 miles    
Events      
Averages and records for this station are not official NWS values.
T = Trace of Precipitation, MM = Missing Value Source: NWS Daily Summary

Daily Weather History Graph

Daily Weather History Graph

Search for Another Location

Airport or City:

Trip Planner

Search our weather history database for the weather conditions in past years. The results will help you decide how hot, cold, wet, or windy it might be!

Date:

Astronomy

Mar. 23, 2013 Rise Set
Actual Time 7:22 AM CDT 7:35 PM CDT
Civil Twilight 6:58 AM CDT 8:00 PM CDT
Nautical Twilight 6:29 AM CDT 8:28 PM CDT
Astronomical Twilight 6:01 AM CDT 8:56 PM CDT
Moon 4:15 PM CDT (3/23) 4:45 AM CDT (3/23)
Length of Visible Light 13h 02m
Length of Day
12h 13m
Waxing Gibbous, 85% of the Moon is Illuminated
Mar 23
Waxing Gibbous
Mar 27
Full
Apr 2
Last Quarter
Apr 10
New
Apr 18
First Quarter

Hourly Weather History & Observations

Time (CDT) Temp. Dew Point Humidity Pressure Visibility Wind Dir Wind Speed Gust Speed Precip Events Conditions
12:53 AM 57.9 °F 50.0 °F 75% 29.77 in 9.0 mi NNW 6.9 mph - N/A   Overcast
1:53 AM 57.0 °F 50.0 °F 77% 29.75 in 8.0 mi NNE 4.6 mph - N/A   Overcast
2:53 AM 55.9 °F 50.0 °F 80% 29.73 in 8.0 mi Variable 3.5 mph - N/A   Overcast
3:53 AM 57.0 °F 51.1 °F 81% 29.72 in 7.0 mi Variable 4.6 mph - N/A   Overcast
4:53 AM 55.9 °F 51.1 °F 84% 29.72 in 7.0 mi Calm Calm - N/A   Overcast
5:53 AM 55.9 °F 52.0 °F 87% 29.73 in 6.0 mi North 5.8 mph - N/A   Overcast
6:53 AM 55.9 °F 52.0 °F 87% 29.75 in 6.0 mi North 3.5 mph - N/A   Overcast
7:53 AM 55.9 °F 52.0 °F 87% 29.76 in 6.0 mi Variable 4.6 mph - 0.00 in   Overcast
8:42 AM 55.4 °F 51.8 °F 88% 29.78 in 6.0 mi Variable 3.5 mph - N/A   Overcast
8:53 AM 55.9 °F 52.0 °F 87% 29.77 in 6.0 mi Calm Calm - N/A   Overcast
9:53 AM 57.0 °F 53.1 °F 87% 29.77 in 5.0 mi Variable 4.6 mph - N/A   Overcast
10:53 AM 57.9 °F 54.0 °F 87% 29.76 in 4.0 mi Variable 3.5 mph - N/A   Overcast
11:53 AM 57.9 °F 54.0 °F 87% 29.75 in 4.0 mi Variable 3.5 mph - N/A   Overcast
12:53 PM 60.1 °F 55.0 °F 83% 29.73 in 4.0 mi Variable 3.5 mph - N/A   Haze
1:53 PM 61.0 °F 55.9 °F 83% 29.69 in 4.0 mi NNW 3.5 mph - N/A   Haze
2:53 PM 63.0 °F 57.0 °F 81% 29.66 in 5.0 mi Calm Calm - N/A   Haze
3:53 PM 64.0 °F 57.0 °F 78% 29.64 in 5.0 mi Calm Calm - N/A   Haze
4:53 PM 66.0 °F 57.9 °F 75% 29.62 in 6.0 mi Calm Calm - N/A   Haze
5:20 PM 66.2 °F 59.0 °F 78% 29.63 in 6.0 mi West 3.5 mph - N/A   Haze
5:53 PM 66.9 °F 59.0 °F 76% 29.62 in 6.0 mi NNW 4.6 mph - N/A   Haze
6:53 PM 64.0 °F 57.9 °F 80% 29.64 in 6.0 mi NNW 5.8 mph - N/A   Haze
7:51 PM 62.6 °F 57.2 °F 82% 29.66 in 7.0 mi Variable 3.5 mph - N/A   Mostly Cloudy
7:53 PM 62.1 °F 57.0 °F 84% 29.66 in 8.0 mi North 4.6 mph - N/A   Mostly Cloudy
8:33 PM 60.8 °F 55.4 °F 82% 29.68 in 8.0 mi NNW 5.8 mph - N/A   Mostly Cloudy
8:53 PM 60.1 °F 55.0 °F 83% 29.67 in 8.0 mi Variable 3.5 mph - N/A   Overcast
9:33 PM 59.0 °F 55.4 °F 88% 29.68 in 8.0 mi Variable 4.6 mph - N/A   Overcast
9:53 PM 59.0 °F 55.0 °F 87% 29.69 in 8.0 mi NNW 6.9 mph - N/A   Overcast
10:53 PM 59.0 °F 55.0 °F 87% 29.69 in 8.0 mi Calm Calm - N/A   Overcast
11:14 PM 59.0 °F 55.4 °F 88% 29.69 in 8.0 mi Calm Calm - N/A   Overcast
11:53 PM 59.0 °F 55.0 °F 87% 29.68 in 8.0 mi Calm Calm - N/A   Overcast